Location: Arpaise
(41.0333°N, 14.7333°E)
Time: 01:16:23
(UTC+00:00)

Cosmos 1953 Rocket - Pass Details

Date: 05 July 2020
Orbit: 605 x 634 km, 82.5° (Epoch: 11 August)

Event Time Altitude Azimuth Distance (km) Brightness Sun altitude
Exits shadow 19:56:02 18° 153° (SSE) 1,511 5.0 -12.6°
Maximum altitude 19:58:51 40° 92° (E) 904 4.1 -12.9°
Drops below altitude 10° 20:02:54 10° 23° (NNE) 1,962 6.4 -13.5°
Sets 20:05:13 0° 16° (NNE) 2,872 7.4 -13.8°
